Tracking 30995 objects as of 5-Jul-2025
HD Live streaming from Space Station
objects crossing your sky now

TITAN 3C TRANSTAGE DEB

Track TITAN 3C TRANSTAGE DEB now!


NORAD ID: 43282
Int'l Code: 1969-013C
Perigee: 37,219.3 km
Apogee: 39,734.0 km
Inclination: 1.3 °
Period: 1,575.3 minutes
Semi major axis: 44847 km
RCS: Unknown
Launch date: February 9, 1969
Source: United States (US)
Launch site: AIR FORCE EASTERN TEST RANGE (AFETR)

Note: This is SATELLITE DEBRIS
Your satellite tracking list
COSMOS 1856
Track 1 satellite(s)




NASA's NSSDC Master Catalog

Two Line Element Set (TLE):
1 43282U 69013C   25185.75482238 -.00000143  00000-0  00000-0 0  9997
2 43282   1.3377  47.1943 0280366 241.0866 115.5567  0.91409919 24415
Source of the keplerian elements: AFSPC